Walla Walla, WA
on Sunday, November 4, 2012

Sunday
Previous Day Next Day
Daily Summary
 ActualAverage (KPDT)Record (KPDT)
Temperature
Mean Temperature °F 45°F  
Max Temperature 71°F 55°F 77°F (1975)
Min Temperature 54°F 36°F 15°F (1935)
Degree Days
Heating Degree Days 3 20  
Month to date heating degree days 77  
Since 1 July heating degree days 619  
Cooling Degree Days 0 0  
Month to date cooling degree days 0  
Year to date cooling degree days 636  
Growing Degree Days12 (Base °F )  
Moisture
Dew Point 49°F   
Average Humidity 65    
Maximum Humidity 83    
Minimum Humidity 46    
Precipitation
Precipitation 0.00 in 0.05 in 0.55 in (1994)
Month to date precipitation 0.19  
Year to date precipitation 9.86  
Snow
Snow 0.00 in 0.00 in 0.00 in (2002)
Month to date snowfall 0.0  
Year to date snowfall 7.8  
Since 1 July snowfall 0.1  
Snow Depth in   
Wind
Wind Speed 5 mph   
Max Wind Speed 12 mph   
Max Gust Speed mph   
Visibility 10 miles   
Events     

Key: T is trace of precipitation, MM is missing value
Source: NWS Daily Summary
Time(PST)TemperatureDew PointHumidity Pressure Visibility Wind DirectionWind SpeedGust SpeedPrecipitationEvents Conditions
12:53 AM 57.0°F 46.9°F 69% 30.20 in 10.0 miles South 6.9 mph - N/A   Overcast
1:53 AM 57.0°F 48.0°F 72% 30.22 in 10.0 miles South 3.5 mph - N/A   Overcast
1:53 AM 57.0°F 48.0°F 72% 30.23 in 10.0 miles Calm Calm - N/A   Overcast
2:53 AM 55.0°F 48.0°F 77% 30.23 in 10.0 miles SE 4.6 mph - N/A   Overcast
4:53 AM 55.9°F 46.9°F 72% 30.25 in 10.0 miles SSE 3.5 mph - N/A   Mostly Cloudy
5:53 AM 54.0°F 46.0°F 75% 30.25 in 10.0 miles SE 4.6 mph - N/A   Mostly Cloudy
6:53 AM 55.9°F 48.0°F 75% 30.27 in 10.0 miles SE 3.5 mph - N/A   Overcast
7:53 AM 57.0°F 48.9°F 74% 30.30 in 10.0 miles ESE 5.8 mph - N/A   Overcast
8:53 AM 62.1°F 48.9°F 62% 30.30 in 10.0 miles SE 3.5 mph - N/A   Overcast
9:53 AM 64.0°F 46.9°F 54% 30.30 in 10.0 miles South 3.5 mph - N/A   Overcast
10:53 AM 66.9°F 48.9°F 52% 30.30 in 10.0 miles WSW 5.8 mph - N/A   Scattered Clouds
11:53 AM 69.1°F 48.0°F 47% 30.28 in 10.0 miles SW 11.5 mph - N/A   Overcast
12:53 PM 70.0°F 48.0°F 46% 30.29 in 10.0 miles SW 10.4 mph - N/A   Overcast
1:53 PM 69.1°F 48.9°F 49% 30.29 in 4.0 miles West 6.9 mph - N/A   Haze
2:53 PM 68.0°F 50.0°F 52% 30.29 in 10.0 miles Calm Calm - N/A   Overcast
3:53 PM 69.1°F 50.0°F 51% 30.30 in 10.0 miles Calm Calm - N/A   Overcast
4:53 PM 66.0°F 52.0°F 60% 30.29 in 10.0 miles ESE 4.6 mph - N/A   Overcast
5:53 PM 63.0°F 52.0°F 67% 30.28 in 10.0 miles SSE 4.6 mph - N/A   Scattered Clouds
6:53 PM 61.0°F 51.1°F 70% 30.30 in 10.0 miles South 3.5 mph - N/A   Clear
7:53 PM 60.1°F 51.1°F 72% 30.29 in 10.0 miles Calm Calm - N/A   Clear
8:53 PM 55.9°F 50.0°F 80% 30.29 in 10.0 miles SE 4.6 mph - N/A   Clear
9:53 PM 55.0°F 50.0°F 83% 30.31 in 10.0 miles Calm Calm - N/A   Clear
10:53 PM 57.9°F 50.0°F 75% 30.30 in 10.0 miles South 10.4 mph - N/A   Clear
Moon Phase
Nov. 04 Nov. 06 Nov. 13 Nov. 20 Nov. 28
Sunrise:06:39 AM (PST) Moon Rise:09:14 PM (PST)11/4
Sunset:04:33 PM (PST) Moon Set:11:29 AM (PST)11/4

Copyright © 2014 The Weather Underground, Inc.